Location: Home
(51.5204°N, 2.5456°W)
Time: 23:49:26
(UTC+00:00)

STRAND 1 - Pass Details

Date: 07 December 2019
Orbit: 768 x 781 km, 98.5° (Epoch: 21 January)

Event Time Altitude Azimuth Distance (km) Brightness Sun altitude
Rises 05:42:27 0° 137° (SE) 3,251 ? -20.4°
Reaches altitude 10° 05:44:53 10° 130° (SE) 2,326 ? -20.0°
Maximum altitude 05:49:34 37° 64° (ENE) 1,192 ? -19.3°
Drops below altitude 10° 05:54:16 10° 358° (N) 2,332 ? -18.6°
Sets 05:56:42 0° 351° (N) 3,262 ? -18.2°
Enters shadow 05:56:48 - 350° (N) 3,301 ? -18.2°
